FW4636 Weather Reports


time (UTC)temp
F
wind
direction
speed
knots
gust
knots
rain 1hr
in
rain 24hr
in
rain mn
in
humidity
%
barometer
mb
20260505182050 79 248 9.6 19.1 0.00 0.00 0.00 75 1004.3
20260505181549 79 228 9.6 19.1 0.00 0.00 0.00 76 1004.3
20260505181049 79 248 8.7 19.1 0.00 0.00 0.00 76 1004.3
20260505180546 79 206 6.1 19.1 0.00 0.00 0.00 78 1004.4
20260505180046 78 192 7.8 18.2 0.00 0.00 0.00 77 1004.4
20260505175545 78 186 7.0 18.2 0.00 0.00 0.00 77 1004.4
20260505175045 78 187 7.8 21.7 0.00 0.00 0.00 78 1004.5
20260505174542 77 211 8.7 21.7 0.00 0.00 0.00 78 1004.5
20260505174045 77 205 8.7 20.0 0.00 0.00 0.00 79 1004.7
20260505173542 77 221 7.8 20.9 0.00 0.00 0.00 79 1004.7
20260505173041 77 194 8.7 20.9 0.00 0.00 0.00 78 1004.7
20260505172541 77 202 6.1 19.1 0.00 0.00 0.00 79 1004.7
20260505172040 77 211 6.1 21.7 0.00 0.00 0.00 79 1004.6
20260505171547 77 209 10.4 21.7 0.00 0.00 0.00 79 1004.5
20260505171040 77 210 7.0 19.1 0.00 0.00 0.00 80 1004.4
20260505170539 77 205 9.6 19.1 0.00 0.00 0.00 79 1004.5
20260505170040 77 217 7.0 17.4 0.00 0.00 0.00 80 1004.6
20260505165539 77 193 10.4 24.3 0.00 0.00 0.00 79 1004.6
20260505165038 76 212 8.7 24.3 0.00 0.00 0.00 79 1004.5
20260505164541 76 198 5.2 24.3 0.00 0.00 0.00 80 1004.5
20260505164036 76 227 9.6 24.3 0.00 0.00 0.00 80 1004.6
20260505163536 76 209 7.8 19.1 0.00 0.00 0.00 81 1004.7
20260505163040 76 215 7.8 18.2 0.00 0.00 0.00 80 1004.8
20260505162534 76 215 7.8 21.7 0.00 0.00 0.00 81 1004.8
20260505162034 76 232 8.7 21.7 0.00 0.00 0.00 80 1004.8
20260505161534 76 252 8.7 19.1 0.00 0.00 0.00 81 1004.9
20260505161034 75 175 8.7 24.3 0.00 0.00 0.00 81 1004.7
20260505160533 75 236 10.4 25.2 0.00 0.00 0.00 82 1004.7
20260505153034 74 188 10.4 19.1 0.00 0.00 0.00 82 1004.8
20260505152527 74 218 7.8 20.9 0.00 0.00 0.00 83 1004.9
20260505152035 74 193 11.3 21.7 0.00 0.00 0.00 83 1004.8
20260505151528 74 246 12.2 21.7 0.00 0.00 0.00 82 1004.6
20260505151026 74 236 11.3 23.5 0.00 0.00 0.00 82 1004.6
20260505150527 74 226 8.7 23.5 0.00 0.00 0.00 82 1004.7
20260505140516 73 185 7.0 20.0 0.00 0.00 0.00 84 1004.6
20260505125010 71 184 5.2 13.9 0.00 0.00 0.00 86 1004.3
20260505124509 71 173 6.1 10.4 0.00 0.00 0.00 87 1004.2
20260505124008 71 217 5.2 11.3 0.00 0.00 0.00 87 1004.2
20260505123508 71 173 6.1 15.6 0.00 0.00 0.00 87 1004.1
20260505123007 71 193 7.8 15.6 0.00 0.00 0.00 87 1004.0
20260505122506 71 225 5.2 9.6 0.00 0.00 0.00 87 1004.0
20260505122005 71 225 3.5 13.9 0.00 0.00 0.00 88 1004.1
20260505121505 71 202 5.2 13.9 0.00 0.00 0.00 88 1004.1
20260505121005 71 204 6.1 16.5 0.00 0.00 0.00 88 1003.9
20260505120503 71 237 7.8 16.5 0.00 0.00 0.00 88 1003.9
20260505120005 71 245 4.3 15.6 0.00 0.00 0.00 88 1004.0
20260505115503 71 209 7.8 13.0 0.00 0.00 0.00 88 1003.9
20260505115003 71 218 7.8 17.4 0.00 0.00 0.00 88 1003.9
20260505114503 71 217 4.3 17.4 0.00 0.00 0.00 88 1003.9
20260505114003 71 221 6.1 12.2 0.00 0.00 0.00 88 1003.9
20260505113502 70 215 6.1 13.0 0.00 0.00 0.00 88 1003.9
20260505113001 70 210 5.2 17.4 0.00 0.00 0.00 88 1003.8
20260505112501 70 205 7.0 17.4 0.00 0.00 0.00 88 1003.8
20260505112003 70 217 7.8 15.6 0.00 0.00 0.00 88 1003.6
20260505111504 70 140 7.0 13.0 0.00 0.00 0.00 88 1003.5
20260505111002 70 188 8.7 16.5 0.00 0.00 0.00 88 1003.5
20260505110502 70 242 7.0 16.5 0.00 0.00 0.00 88 1003.6
20260505102056 70 212 5.2 15.6 0.00 0.00 0.00 87 1003.8
20260505101556 71 213 5.2 22.6 0.00 0.00 0.00 87 1004.0
20260505101055 71 211 9.6 22.6 0.00 0.00 0.00 87 1003.9
20260505100555 71 209 9.6 20.0 0.00 0.00 0.00 87 1003.8
20260505100057 71 207 7.8 20.0 0.00 0.00 0.00 87 1003.9
20260505095557 71 196 7.0 20.9 0.00 0.00 0.00 86 1003.9
20260505095052 71 204 9.6 20.9 0.00 0.00 0.00 86 1003.8
20260505094553 71 178 8.7 16.5 0.00 0.00 0.00 86 1004.0
20260505094052 71 244 6.1 19.1 0.00 0.00 0.00 86 1003.9
20260505093552 71 209 9.6 19.1 0.00 0.00 0.00 86 1003.9
20260505093051 71 221 7.8 16.5 0.00 0.00 0.00 86 1003.8
20260505092550 71 219 7.8 20.9 0.00 0.00 0.00 85 1003.8
20260505092050 71 240 9.6 20.9 0.00 0.00 0.00 85 1003.8
20260505091613 71 209 6.1 19.1 0.00 0.00 0.00 85 1003.7
20260505091049 71 224 8.7 18.2 0.00 0.00 0.00 85 1003.8
20260505090548 71 210 7.8 18.2 0.00 0.00 0.00 85 1003.8
20260505090104 71 205 7.8 18.2 0.00 0.00 0.00 85 1003.7
20260505085548 71 231 4.3 17.4 0.00 0.00 0.00 85 1003.8
20260505085051 71 209 9.6 17.4 0.00 0.00 0.00 85 1003.8
20260505084602 71 207 7.8 16.5 0.00 0.00 0.00 85 1003.8
20260505084046 71 226 7.0 17.4 0.00 0.00 0.00 84 1003.9
20260505083549 71 205 7.8 19.1 0.00 0.00 0.00 84 1003.9
20260505083100 71 217 7.8 20.9 0.00 0.00 0.00 84 1003.8
20260505082543 71 203 7.8 20.9 0.00 0.00 0.00 84 1004.0
20260505082042 71 198 7.0 18.2 0.00 0.00 0.00 84 1004.2
20260505081555 71 209 7.8 18.2 0.00 0.00 0.00 85 1004.3
20260505081043 71 216 6.1 21.7 0.00 0.00 0.00 85 1004.3
20260505080541 71 217 7.8 21.7 0.00 0.00 0.00 85 1004.2
20260505080052 71 200 7.8 16.5 0.00 0.00 0.00 85 1004.2
20260505075542 71 211 6.1 19.1 0.00 0.00 0.00 85 1004.2
20260505075041 71 165 7.0 19.1 0.00 0.00 0.00 85 1004.3
20260505074539 71 246 9.6 18.2 0.00 0.00 0.00 85 1004.4
20260505074038 71 219 7.8 18.2 0.00 0.00 0.00 85 1004.4
20260505073537 71 176 7.8 22.6 0.00 0.00 0.00 85 1004.5
20260505073049 71 213 11.3 22.6 0.00 0.00 0.00 84 1004.7
20260505072534 71 214 7.8 20.9 0.00 0.00 0.00 84 1004.8
20260505072034 71 225 8.7 22.6 0.00 0.00 0.00 84 1004.9
20260505071544 71 204 7.8 22.6 0.00 0.00 0.00 84 1004.9
20260505071035 71 205 8.7 22.6 0.00 0.00 0.00 84 1004.9
20260505070535 71 173 7.8 19.1 0.00 0.00 0.00 84 1004.9
20260505070041 71 216 8.7 21.7 0.00 0.00 0.00 84 1005.0
20260505065531 71 198 5.2 21.7 0.00 0.00 0.00 83 1005.1
20260505065029 71 216 6.1 16.5 0.00 0.00 0.00 83 1005.1
20260505064529 71 198 6.1 20.0 0.00 0.00 0.00 83 1005.3
20260505064031 72 213 6.1 20.0 0.00 0.00 0.00 82 1005.4
20260505063528 72 214 7.0 15.6 0.00 0.00 0.00 82 1005.5
20260505063035 72 215 8.7 15.6 0.00 0.00 0.00 82 1005.4
20260505062527 72 187 6.1 20.0 0.00 0.00 0.00 82 1005.4
20260505062025 72 206 7.8 20.0 0.00 0.00 0.00 82 1005.4
20260505061528 72 202 4.3 13.0 0.00 0.00 0.00 82 1005.4
20260505061024 72 182 4.3 12.2 0.00 0.00 0.00 81 1005.4
20260505060524 72 202 6.1 13.9 0.00 0.00 0.00 81 1005.4
20260505060048 72 184 6.1 13.9 0.00 0.00 0.00 81 1005.4
20260505055523 72 153 6.1 13.9 0.00 0.00 0.00 81 1005.4
20260505055021 72 226 5.2 13.9 0.00 0.00 0.00 80 1005.6
20260505054522 72 240 5.2 13.9 0.00 0.00 0.00 80 1005.7
20260505054020 72 217 7.0 13.9 0.00 0.00 0.00 80 1005.6
20260505053520 73 184 4.3 13.9 0.00 0.00 0.00 80 1005.5
20260505053019 73 209 6.1 12.2 0.00 0.00 0.00 80 1005.6
20260505052517 73 194 5.2 12.2 0.00 0.00 0.00 80 1005.7
20260505052016 73 225 5.2 13.0 0.00 0.00 0.00 80 1005.7
20260505051516 73 213 7.0 13.0 0.00 0.00 0.00 79 1005.7
20260505051014 73 161 7.0 13.9 0.00 0.00 0.00 79 1005.6
20260505050514 73 212 6.1 17.4 0.00 0.00 0.00 79 1005.5
20260505041510 73 210 5.2 11.3 0.00 0.00 0.00 78 1005.7
20260505041012 73 193 4.3 13.0 0.00 0.00 0.00 78 1005.8
20260505040517 73 170 5.2 13.0 0.00 0.00 0.00 78 1005.7
20260505040019 73 194 5.2 12.2 0.00 0.00 0.00 78 1005.8
20260505035510 73 161 5.2 12.2 0.00 0.00 0.00 77 1005.6
20260505035010 73 186 5.2 12.2 0.00 0.00 0.00 77 1005.6
20260505034511 73 184 5.2 12.2 0.00 0.00 0.00 77 1005.6
20260505034015 73 214 5.2 12.2 0.00 0.00 0.00 76 1005.6
20260505033510 73 195 5.2 12.2 0.00 0.00 0.00 76 1005.7
20260505033010 73 195 5.2 12.2 0.00 0.00 0.00 76 1006.0
20260505032511 73 162 5.2 11.3 0.00 0.00 0.00 75 1005.9
20260505032011 73 154 6.1 11.3 0.00 0.00 0.00 75 1005.9
20260505031509 73 183 4.3 13.0 0.00 0.00 0.00 75 1005.7
20260505031009 74 161 6.1 13.0 0.00 0.00 0.00 74 1005.7
20260505030509 74 180 5.2 15.6 0.00 0.00 0.00 74 1005.7
20260505030009 74 201 7.0 15.6 0.00 0.00 0.00 74 1005.5
20260505025511 74 178 6.1 11.3 0.00 0.00 0.00 74 1005.6
20260505025009 74 192 5.2 13.0 0.00 0.00 0.00 74 1005.6
20260505024509 74 163 6.1 13.0 0.00 0.00 0.00 73 1005.5
20260505024008 74 188 3.5 10.4 0.00 0.00 0.00 73 1005.4
20260505023508 74 196 5.2 11.3 0.00 0.00 0.00 73 1005.4
20260505023008 74 160 6.1 11.3 0.00 0.00 0.00 72 1005.3
20260505022508 74 163 4.3 10.4 0.00 0.00 0.00 72 1005.2
20260505022008 75 167 4.3 9.6 0.00 0.00 0.00 72 1005.3
20260505021508 75 176 4.3 13.0 0.00 0.00 0.00 72 1005.3
20260505021008 75 179 5.2 13.0 0.00 0.00 0.00 72 1005.4
20260505020507 75 185 3.5 12.2 0.00 0.00 0.00 71 1005.3
20260505020007 75 171 6.1 13.0 0.00 0.00 0.00 71 1005.3
20260505015507 75 215 6.1 13.0 0.00 0.00 0.00 71 1005.3
20260505015007 75 177 3.5 8.7 0.00 0.00 0.00 70 1005.3
20260505014509 75 179 4.3 8.7 0.00 0.00 0.00 69 1005.3
20260505014007 75 150 3.5 9.6 0.00 0.00 0.00 69 1005.3
20260505013508 76 153 4.3 9.6 0.00 0.00 0.00 69 1005.2
20260505013006 76 161 4.3 9.6 0.00 0.00 0.00 68 1005.2
20260505012506 76 188 3.5 12.2 0.00 0.00 0.00 68 1005.2
20260505012006 76 185 5.2 13.0 0.00 0.00 0.00 68 1005.1
20260505011506 76 171 5.2 13.0 0.00 0.00 0.00 67 1005.2
20260505011005 76 183 5.2 11.3 0.00 0.00 0.00 67 1005.4
20260505010505 76 190 6.1 11.3 0.00 0.00 0.00 67 1005.4
20260505010006 77 189 6.1 10.4 0.00 0.00 0.00 66 1005.3
20260505005507 77 190 5.2 12.2 0.00 0.00 0.00 66 1005.2
20260505005005 77 163 4.3 12.2 0.00 0.00 0.00 65 1005.4
20260505004506 77 173 3.5 15.6 0.00 0.00 0.00 65 1005.5
20260505004003 77 191 5.2 15.6 0.00 0.00 0.00 65 1005.5
20260505003503 77 207 5.2 12.2 0.00 0.00 0.00 64 1005.5
20260505003002 78 197 6.1 13.0 0.00 0.00 0.00 64 1005.5
20260505002503 78 200 5.2 19.1 0.00 0.00 0.00 64 1005.5
20260505002003 78 215 5.2 19.1 0.00 0.00 0.00 63 1005.5
20260505001503 78 226 8.7 13.9 0.00 0.00 0.00 63 1005.5
20260505001006 78 167 5.2 21.7 0.00 0.00 0.00 63 1005.6
20260505000502 78 172 9.6 21.7 0.00 0.00 0.00 63 1005.5
20260505000002 78 200 6.1 16.5 0.00 0.00 0.00 63 1005.6
20260504235502 78 194 7.8 20.0 0.00 0.00 0.00 62 1005.6
20260504235002 78 191 6.1 20.0 0.00 0.00 0.00 62 1005.7
20260504234501 78 177 7.8 19.1 0.00 0.00 0.00 62 1005.8
20260504234001 78 221 6.1 15.6 0.00 0.00 0.00 61 1005.8
20260504233601 79 188 6.1 17.4 0.00 0.00 0.00 61 1005.8
20260504233502 79 175 6.1 17.4 0.00 0.00 0.00 61 1005.8
20260504233103 79 156 7.0 17.4 0.00 0.00 0.00 60 1005.8
20260504232602 79 162 5.2 20.0 0.00 0.00 0.00 61 1005.7
20260504232059 79 194 8.7 20.9 0.00 0.00 0.00 60 1005.8
20260504231558 79 217 10.4 20.9 0.00 0.00 0.00 60 1005.9
20260504231058 79 225 6.1 21.7 0.00 0.00 0.00 60 1005.9
20260504230659 79 211 5.2 21.7 0.00 0.00 0.00 60 1006.0
20260504230056 79 192 9.6 20.0 0.00 0.00 0.00 60 1006.1
20260504225556 79 144 7.0 17.4 0.00 0.00 0.00 59 1006.0
20260504225055 79 192 8.7 17.4 0.00 0.00 0.00 59 1006.1
20260504224555 80 219 7.8 16.5 0.00 0.00 0.00 59 1006.2
20260504224058 79 224 7.0 16.5 0.00 0.00 0.00 59 1006.2
20260504223559 79 223 6.1 19.1 0.00 0.00 0.00 60 1006.3
20260504223110 80 198 10.4 19.1 0.00 0.00 0.00 59 1006.3
20260504222553 80 185 7.8 18.2 0.00 0.00 0.00 59 1006.3
20260504222053 80 215 7.8 18.2 0.00 0.00 0.00 59 1006.4
20260504221553 80 225 10.4 18.2 0.00 0.00 0.00 58 1006.4
20260504221053 80 224 9.6 18.2 0.00 0.00 0.00 57 1006.5
20260504220552 80 200 8.7 17.4 0.00 0.00 0.00 58 1006.5
20260504220053 80 213 7.8 20.0 0.00 0.00 0.00 57 1006.4
20260504215557 80 181 8.7 20.9 0.00 0.00 0.00 57 1006.5
20260504215051 81 225 7.8 20.9 0.00 0.00 0.00 57 1006.7
20260504214552 81 190 7.0 18.2 0.00 0.00 0.00 57 1006.6
20260504214055 81 227 7.8 18.2 0.00 0.00 0.00 56 1006.7
20260504213551 81 226 4.3 19.1 0.00 0.00 0.00 57 1006.7
20260504213050 80 225 7.0 20.9 0.00 0.00 0.00 56 1006.8
20260504212552 81 240 8.7 20.9 0.00 0.00 0.00 55 1007.1
20260504212048 81 216 9.6 18.2 0.00 0.00 0.00 56 1007.1
20260504211631 81 242 7.0 18.2 0.00 0.00 0.00 56 1007.2
20260504211048 81 205 7.0 18.2 0.00 0.00 0.00 56 1007.1
20260504210547 81 174 8.7 19.1 0.00 0.00 0.00 55 1007.2
20260504210051 81 208 7.8 19.1 0.00 0.00 0.00 55 1007.4
20260504205546 81 230 8.7 20.9 0.00 0.00 0.00 55 1007.5
20260504205045 81 193 12.2 20.9 0.00 0.00 0.00 54 1007.5
20260504204545 81 191 7.0 19.1 0.00 0.00 0.00 55 1007.7
20260504204044 81 244 8.7 19.1 0.00 0.00 0.00 55 1007.8
20260504203543 81 200 7.0 15.6 0.00 0.00 0.00 55 1008.0
20260504203043 81 182 7.8 19.1 0.00 0.00 0.00 55 1008.0
20260504202541 81 195 7.0 19.1 0.00 0.00 0.00 54 1008.3
20260504202040 81 226 7.0 17.4 0.00 0.00 0.00 54 1008.4
20260504201539 81 223 10.4 17.4 0.00 0.00 0.00 53 1008.6
20260504201038 81 208 7.8 17.4 0.00 0.00 0.00 54 1008.6
20260504200539 80 215 7.8 20.0 0.00 0.00 0.00 54 1008.7
20260504200039 80 212 7.0 20.0 0.00 0.00 0.00 54 1008.7
20260504195537 81 186 10.4 20.0 0.00 0.00 0.00 52 1008.7
20260504195037 81 159 6.1 17.4 0.00 0.00 0.00 53 1008.7
20260504194544 81 171 8.7 17.4 0.00 0.00 0.00 52 1008.7
20260504194037 81 207 7.0 12.2 0.00 0.00 0.00 51 1008.8
20260504193537 81 231 6.1 12.2 0.00 0.00 0.00 52 1009.0
20260504193036 81 215 3.5 16.5 0.00 0.00 0.00 52 1009.1
20260504192532 80 257 6.1 16.5 0.00 0.00 0.00 53 1009.3
20260504192032 79 141 8.7 18.2 0.00 0.00 0.00 52 1009.3
20260504191535 79 186 8.7 19.1 0.00 0.00 0.00 51 1009.3
20260504191031 80 212 11.3 19.1 0.00 0.00 0.00 51 1009.5
20260504190530 79 178 6.1 18.2 0.00 0.00 0.00 52 1009.6
20260504190029 79 154 9.6 18.2 0.00 0.00 0.00 51 1009.6
20260504185532 79 245 7.8 16.5 0.00 0.00 0.00 52 1009.8
20260504185029 79 191 10.4 17.4 0.00 0.00 0.00 51 1009.8
20260504184542 79 210 7.0 18.2 0.00 0.00 0.00 51 1009.8
20260504184027 79 191 3.5 18.2 0.00 0.00 0.00 52 1010.0
20260504183526 78 205 6.1 18.2 0.00 0.00 0.00 51 1010.0
20260504183025 78 175 9.6 21.7 0.00 0.00 0.00 52 1010.0
20260504182524 78 186 8.7 21.7 0.00 0.00 0.00 52 1010.2